Bellaire, MI

8:33 PM EDT on May 26, 2017 (GMT -0400)
Antrim County

Weather History for KACB - May, 2012

Change the Weather History Date:

Thursday, May 10, 2012

  Actual Average (KCVX) Record (KCVX)
Temperature  
Mean Temperature 46 °F -  
Max Temperature 62 °F 59 °F 80 °F (2001)
Min Temperature 30 °F 44 °F 37 °F (2008)
Degree Days  
Heating Degree Days 19    
Moisture  
Dew Point 32 °F    
Average Humidity 64    
Maximum Humidity 97    
Minimum Humidity 25    
Precipitation  
Precipitation 0.00 in - - ()
Sea Level Pressure  
Sea Level Pressure 29.94 in    
Wind  
Wind Speed 1 mph (WNW)    
Max Wind Speed 10 mph    
Max Gust Speed 18 mph    
Visibility 9 miles    
Events Fog    
Averages and records for this station are not official NWS values.
T = Trace of Precipitation, MM = Missing Value Source: NWS Daily Summary

Daily Weather History Graph

Daily Weather History Graph

Search for Another Location

Airport or City:

Trip Planner

Search our weather history database for the weather conditions in past years. The results will help you decide how hot, cold, wet, or windy it might be!

Date:

Astronomy

May. 10, 2012 Rise Set
Actual Time 6:17 AM EDT 8:57 PM EDT
Civil Twilight 5:43 AM EDT 9:31 PM EDT
Nautical Twilight 5:01 AM EDT 10:14 PM EDT
Astronomical Twilight 4:12 AM EDT 11:03 PM EDT
Moon 12:57 AM EDT (5/10) 10:40 AM EDT (5/10)
Length of Visible Light 15h 48m
Length of Day
14h 40m
Waning Gibbous, 73% of the Moon is Illuminated
May 10
Waning Gibbous
May 12
Last Quarter
May 20
New
May 28
First Quarter
Jun 4
Full

Hourly Weather History & Observations

Time (EDT) Temp. Dew Point Humidity Pressure Visibility Wind Dir Wind Speed Gust Speed Precip Events Conditions
12:13 AM 34.2 °F 32.0 °F 92% 29.91 in 7.0 mi Calm Calm - N/A   Clear
12:33 AM 34.2 °F 32.0 °F 92% 29.91 in 10.0 mi Calm Calm - N/A   Clear
12:54 AM 33.1 °F 31.6 °F 94% 29.91 in 7.0 mi Calm Calm - N/A   Clear
1:13 AM 33.1 °F 31.8 °F 95% 29.91 in 10.0 mi Calm Calm - N/A   Clear
1:34 AM 32.7 °F 31.6 °F 96% 29.91 in 10.0 mi Calm Calm - N/A   Clear
1:53 AM 33.1 °F 31.8 °F 95% 29.90 in 10.0 mi Calm Calm - N/A   Clear
2:13 AM 32.0 °F 30.6 °F 94% 29.90 in 10.0 mi Calm Calm - N/A   Clear
2:34 AM 31.6 °F 29.8 °F 93% 29.90 in 10.0 mi Calm Calm - N/A   Clear
2:53 AM 31.5 °F 29.8 °F 94% 29.90 in 4.0 mi Calm Calm - N/A   Clear
3:13 AM 31.3 °F 30.0 °F 95% 29.90 in 1.8 mi Calm Calm - N/A   Mist
3:34 AM 30.6 °F 29.1 °F 94% 29.90 in 10.0 mi Calm Calm - N/A   Clear
3:53 AM 30.9 °F 29.7 °F 95% 29.90 in 5.0 mi Calm Calm - N/A   Clear
4:14 AM 30.6 °F 29.1 °F 94% 29.91 in 7.0 mi Calm Calm - N/A   Clear
4:34 AM 30.4 °F 29.1 °F 95% 29.91 in 10.0 mi Calm Calm - N/A   Clear
4:53 AM 30.0 °F 28.6 °F 94% 29.91 in 7.0 mi Calm Calm - N/A   Scattered Clouds
5:14 AM 30.2 °F 28.9 °F 95% 29.91 in 7.0 mi Calm Calm - N/A   Mostly Cloudy
5:33 AM 31.1 °F 29.8 °F 95% 29.92 in 0.5 mi Calm Calm - N/A Fog Light Freezing Fog
5:53 AM 31.6 °F 30.2 °F 94% 29.92 in 0.2 mi Calm Calm - N/A Fog Light Freezing Fog
6:14 AM 31.1 °F 30.0 °F 96% 29.93 in 1.5 mi Calm Calm - N/A   Overcast
6:34 AM 31.6 °F 30.2 °F 94% 29.93 in 0.2 mi Calm Calm - N/A Fog Light Freezing Fog
6:53 AM 31.3 °F 30.2 °F 96% 29.94 in 0.5 mi Calm Calm - N/A Fog Light Freezing Fog
7:14 AM 32.0 °F 30.9 °F 96% 29.94 in 10.0 mi Calm Calm - N/A   Scattered Clouds
7:33 AM 32.5 °F 31.8 °F 97% 29.95 in 10.0 mi Calm Calm - N/A   Clear
7:54 AM 34.7 °F 33.3 °F 94% 29.95 in 10.0 mi Calm Calm - N/A   Clear
8:14 AM 37.2 °F 35.6 °F 94% 29.95 in 10.0 mi Calm Calm - N/A   Clear
8:33 AM 39.4 °F 37.0 °F 91% 29.96 in 10.0 mi Calm Calm - N/A   Clear
8:54 AM 41.7 °F 38.5 °F 88% 29.96 in 10.0 mi Calm Calm - N/A   Clear
9:14 AM 44.4 °F 39.7 °F 84% 29.97 in 10.0 mi Calm Calm - N/A   Clear
9:33 AM 45.7 °F 40.1 °F 81% 29.97 in 10.0 mi Calm Calm - N/A   Clear
9:54 AM 48.6 °F 40.3 °F 73% 29.97 in 10.0 mi Calm Calm - N/A   Clear
10:13 AM 51.8 °F 37.2 °F 58% 29.97 in 10.0 mi Calm Calm - N/A   Clear
10:34 AM 51.8 °F 37.4 °F 58% 29.97 in 10.0 mi Calm Calm - N/A   Clear
10:54 AM 53.6 °F 37.4 °F 54% 29.98 in 10.0 mi Calm Calm - N/A   Clear
11:13 AM 54.3 °F 37.2 °F 52% 29.98 in 10.0 mi South 4.6 mph - N/A   Clear
11:34 AM 55.6 °F 37.9 °F 52% 29.97 in 10.0 mi South 8.1 mph - N/A   Clear
11:54 AM 58.5 °F 34.5 °F 41% 29.97 in 10.0 mi NW 6.9 mph - N/A   Clear
12:13 PM 59.4 °F 33.3 °F 37% 29.97 in 10.0 mi NW 4.6 mph - N/A   Clear
12:34 PM 59.5 °F 31.3 °F 34% 29.96 in 10.0 mi NNW 8.1 mph - N/A   Clear
12:54 PM 60.3 °F 31.5 °F 34% 29.96 in 10.0 mi NW 4.6 mph - N/A   Clear
1:13 PM 61.0 °F 30.4 °F 32% 29.96 in 10.0 mi WNW 8.1 mph - N/A   Clear
1:34 PM 60.8 °F 27.9 °F 29% 29.95 in 10.0 mi WNW 9.2 mph 17.3 mph N/A   Clear
1:54 PM 61.0 °F 27.3 °F 28% 29.95 in 10.0 mi WNW 8.1 mph - N/A   Clear
2:14 PM 61.3 °F 27.0 °F 27% 29.95 in 10.0 mi WNW 10.4 mph 16.1 mph N/A   Clear
2:34 PM 61.3 °F 27.0 °F 27% 29.95 in 10.0 mi WNW 10.4 mph 18.4 mph N/A   Clear
2:54 PM 61.2 °F 26.4 °F 27% 29.96 in 10.0 mi WNW 10.4 mph 16.1 mph N/A   Mostly Cloudy
3:14 PM 61.0 °F 27.0 °F 27% 29.96 in 10.0 mi West 8.1 mph 17.3 mph N/A   Mostly Cloudy
3:34 PM 61.0 °F 26.8 °F 27% 29.96 in 10.0 mi WNW 8.1 mph - N/A   Clear
3:53 PM 61.2 °F 27.0 °F 27% 29.95 in 10.0 mi WNW 5.8 mph 16.1 mph N/A   Clear
4:14 PM 61.0 °F 26.4 °F 27% 29.95 in 10.0 mi WNW 8.1 mph - N/A   Clear
4:34 PM 61.9 °F 27.1 °F 27% 29.95 in 10.0 mi West 4.6 mph - N/A   Clear
4:53 PM 61.7 °F 27.3 °F 27% 29.95 in 10.0 mi WNW 6.9 mph - N/A   Clear
5:14 PM 61.7 °F 26.8 °F 27% 29.94 in 10.0 mi WSW 5.8 mph - N/A   Clear
5:34 PM 62.4 °F 27.5 °F 27% 29.94 in 10.0 mi West 3.5 mph - N/A   Clear
5:54 PM 62.6 °F 27.1 °F 26% 29.94 in 10.0 mi Calm Calm - N/A   Clear
6:14 PM 62.2 °F 27.0 °F 26% 29.94 in 10.0 mi SW 5.8 mph - N/A   Clear
6:34 PM 62.6 °F 27.1 °F 26% 29.94 in 10.0 mi West 5.8 mph - N/A   Clear
6:54 PM 62.2 °F 26.1 °F 25% 29.94 in 10.0 mi West 3.5 mph - N/A   Clear
7:14 PM 62.1 °F 27.0 °F 26% 29.94 in 10.0 mi Calm Calm - N/A   Clear
7:33 PM 62.1 °F 27.3 °F 27% 29.94 in 10.0 mi Calm Calm - N/A   Clear
7:54 PM 61.7 °F 28.0 °F 28% 29.94 in 10.0 mi Calm Calm - N/A   Clear
8:14 PM 60.3 °F 31.3 °F 34% 29.94 in 10.0 mi Calm Calm - N/A   Clear
8:34 PM 56.1 °F 36.7 °F 48% 29.94 in 10.0 mi Calm Calm - N/A   Clear
8:54 PM 52.3 °F 35.4 °F 53% 29.94 in 10.0 mi Calm Calm - N/A   Clear
9:14 PM 50.2 °F 37.4 °F 62% 29.94 in 10.0 mi Calm Calm - N/A   Clear
9:34 PM 48.2 °F 36.5 °F 64% 29.95 in 10.0 mi Calm Calm - N/A   Clear
9:54 PM 47.5 °F 37.0 °F 67% 29.95 in 10.0 mi Calm Calm - N/A   Clear
10:14 PM 45.1 °F 37.2 °F 74% 29.96 in 10.0 mi Calm Calm - N/A   Clear
10:34 PM 44.8 °F 38.5 °F 79% 29.96 in 10.0 mi Calm Calm - N/A   Clear
10:54 PM 43.2 °F 37.9 °F 82% 29.97 in 10.0 mi Calm Calm - N/A   Clear
11:14 PM 43.0 °F 37.6 °F 81% 29.97 in 10.0 mi Calm Calm - N/A   Clear
11:34 PM 42.1 °F 37.8 °F 85% 29.98 in 10.0 mi Calm Calm - N/A   Clear
11:53 PM 41.2 °F 37.4 °F 86% 29.98 in 10.0 mi Calm Calm - N/A   Clear